Nattehimlen netop nu: Lyriderne 16-28.april 2019, maximum 21-23.april med 20 stjerneskud i timen, stjerneskud med lange vedholdende haler, Retning Vega en af nattehimlens mest lysende stjerner, fra Kometen Thatcher. Næste Eta-Aquariderne 19/4-28/5-2019, maximum 4-5.maj med 30 stjerneskud i timen, stjerneskud med lange vedholdende haler, mod syd stjernebillede Vandmanden, ses i timerne før daggry..


Vejr3>N more information Vejr3>N


Vejr3>V more information Vejr3>V


3 timers nedbørs radar more information rain snow radar


besøg nogle andre vejrsider:

Template dokumentation
og downloads

And another site


Select another period ( hide this area )

enheder periode Custom range Directly to
metrisk engelsk både
dagens ugenligt månedlig årligt
use both date-selectors for a custom range
forgående dag
With this date

WeatherUnderground graphs for this period ( click here )


dagens sammenfatning af fredag 19 april 2019
tid Temp. ( °C ) Dew pt. ( °C ) vind ( km/h ) fra vindstød ( km/h ) lufttryk ( hPa ) Humid.( % ) Rainrate ( cm ) solenergi ( W/m2 )
høj17,7 5,3 18,5 øst ( 589/1867 ) 16,1 1036,0 88 - 717
gennemsnit10,6 2,7 8,4 øst #58/221 6,3 1035,0 61 - 403 #148/221
lav2,4 0,2 -   0,0 1033,2 35 -  
dagens Tabular details for fredag 19 april 2019
tid Temp. ( °C ) Dew pt. ( °C ) vind ( km/h ) fra vindstød ( km/h ) lufttryk ( hPa ) Humid.( % ) Rainrate ( cm ) solenergi ( W/m2 )
00:00 6,4 2,9 4,8 øst 8,0 1034,7 78 - -
00:23 5,8 2,8 8,0 ønø 4,5 1034,9 81 - -
00:25 6,1 2,8 4,8 øst 8,0 1034,8 80 - -
00:33 5,6 2,8 6,4 øst 4,3 1034,9 82 - -
00:38 5,6 2,8 4,8 øst 8,0 1034,9 82 - -
00:43 5,5 2,5 7,4 øst 5,8 1034,9 81 - -
00:45 5,5 2,5 7,4 øst 5,8 1034,9 81 - -
01:00 5,5 2,5 4,8 øst 8,0 1034,9 81 - -
01:15 5,5 2,5 4,8 øst 8,0 1034,9 81 - -
01:24 5,0 2,3 5,6 2,7 1035,0 83 - -
01:29 4,9 2,3 1,6 0,2 1035,1 83 - -
01:30 4,9 2,3 1,9 0,8 1035,1 83 - -
01:39 4,8 2,3 1,9   1035,1 84 - -
01:44 4,9 2,8 4,8 nnø 2,1 1035,1 86 - -
01:45 4,9 2,8 1,6 nnø 4,8 1035,1 86 - -
01:54 5,0 2,5 4,8 nnø 3,1 1035,0 84 - -
01:59 4,9 2,4 6,4 4,2 1035,0 84 - -
02:00 4,9 2,4 3,2 6,4 1035,0 84 - -
02:14 4,7 2,4 1,6 3,2 1035,0 85 - -
02:15 4,7 2,2   stille   1035,0 84 - -
02:24 4,7 2,3 1,6   1035,0 85 - -
02:29 4,3 1,9 5,6 ønø 2,7 1035,0 84 - -
02:30 4,3 1,9 1,6 4,8 1034,9 84 - -
02:44 4,1 1,8 5,6 ønø 3,1 1034,9 85 - -
02:45 4,2 1,9 3,2 ønø 4,8 1034,9 85 - -
02:54 3,9 1,7 1,9 ønø   1034,9 85 - -
02:59 3,9 1,6   stille   1034,8 85 - -
03:00 3,9 1,6   stille   1034,8 85 - -
03:09 3,7 1,4   stille   1034,9 85 - -
03:14 3,7 1,2   stille   1034,9 84 - -
03:19 3,6 1,1   stille   1035,0 84 - -
03:24 3,4 0,9   stille   1035,0 84 - -
03:29 3,3 1,1   stille   1034,9 85 - -
03:34 3,3 1,1 1,6 ønø 0,2 1034,9 85 - -
03:39 3,3 1,1 1,9 ønø   1034,9 85 - -
03:44 3,4 1,1 1,9 ønø 0,2 1034,9 85 - -
03:49 3,4 1,1 1,9 ønø 0,2 1034,9 85 - -
03:54 3,4 0,9 1,9 ønø 0,2 1034,9 84 - -
03:59 3,4 0,9 3,7 ønø 1,1 1034,9 84 - -
04:04 3,4 0,9 3,2 ønø 0,6 1035,0 84 - -
04:09 3,4 0,9 1,9 ønø   1035,0 84 - -
04:14 3,3 0,9   stille   1035,0 84 - -
04:19 3,2 0,8   stille   1035,0 84 - -
04:24 3,2 0,7 1,9 ønø 0,3 1035,0 84 - -
04:29 3,1 0,8   stille   1035,0 85 - -
04:34 3,1 0,8   stille   1035,0 85 - -
04:39 3,1 0,8 3,2 ønø 0,6 1034,9 85 - -
04:44 3,0 0,6 5,6 ønø 3,5 1034,9 84 - -
04:49 2,9 0,5 3,7 ønø 1,3 1034,9 84 - -
04:54 2,9 0,6   stille   1034,9 85 - -
04:59 2,9 0,6 3,7 ønø 2,6 1034,9 85 - -
05:04 2,8 0,6 3,7 ønø 0,2 1034,9 85 - -
05:09 2,7 0,3 3,7 ønø 2,3 1034,9 84 - -
05:14 2,6 0,3 4,8 ønø 2,7 1034,9 85 - -
05:19 2,5 0,2 5,6 ønø 4,5 1034,9 85 - -
05:24 2,4 0,3 5,6 ønø 4,5 1034,9 86 - -
05:29 2,4 0,3 5,6 ønø 4,8 1035,0 86 - -
05:34 2,4 0,3 5,6 ønø 4,0 1035,0 86 - -
05:39 2,5 0,6 5,6 ønø 3,9 1035,0 87 - -
05:44 2,7 0,7 5,6 ønø 4,0 1035,0 87 - -
05:49 2,8 0,7 5,6 ønø 3,9 1035,0 86 - -
05:54 2,8 0,7 5,6 ønø 3,2 1035,0 86 - -
05:59 2,8 0,6   stille   1035,0 85 - 5
06:04 2,8 0,6   stille   1035,0 85 - 7
06:09 2,8 0,6 5,6 ønø 3,2 1035,1 85 - 9
06:14 2,8 0,6 5,6 øst 3,7 1035,1 85 - 11
06:19 2,8 0,6 5,6 øst 4,3 1035,1 85 - 12
06:24 2,8 0,5 6,4 øst 5,8 1035,1 85 - 14
06:29 2,8 0,5 5,6 øst 3,9 1035,1 85 - 16
06:34 2,7 0,4 3,7 øst 2,9 1035,1 85 - 18
06:39 2,7 0,6 3,7 øst 2,9 1035,1 86 - 19
06:44 2,7 0,8 3,7 øst 2,9 1035,2 87 - 21
06:49 2,7 0,6 5,6 øst 3,5 1035,2 86 - 39
06:54 2,7 0,8 5,6 øst 3,4 1035,2 87 - 40
06:59 2,8 0,8 5,6 øst 4,3 1035,3 87 - 49
07:04 3,1 1,3 5,6 øst 3,5 1035,3 88 - 86
07:09 3,5 1,7 3,7 øst 2,3 1035,4 88 - 95
07:14 4,2 2,1   stille   1035,4 86 - 100
07:19 4,8 2,3   stille   1035,4 84 - 107
07:24 5,5 2,7 5,6 øst 3,4 1035,4 82 - 109
07:29 6,1 2,5 5,6 øst 3,4 1035,5 78 - 109
07:34 6,7 2,7 5,6 øst 3,7 1035,5 76 - 113
07:39 7,3 2,8 1,9 ønø 0,3 1035,5 73 - 125
07:44 7,8 3,3 3,7 ønø 2,3 1035,5 73 - 144
07:49 8,3 3,1 3,7 ønø 2,1 1035,5 70 - 174
07:54 8,7 3,1 5,6 øst 2,9 1035,5 68 - 199
07:59 8,9 2,9 5,6 øst 3,9 1035,5 66 - 211
08:04 9,2 3,4 5,6 ønø 3,4 1035,5 67 - 220
08:09 9,5 3,2 8,0 ønø 6,4 1035,5 65 - 213
08:14 9,8 3,3 9,3 øst 6,6 1035,5 64 - 204
08:19 10,1 3,1 12,9 øst 7,1 1035,6 62 - 220
08:24 10,2 3,0 11,3 øst 7,4 1035,5 61 - 251
08:29 10,4 2,9 16,7 øsø 9,7 1035,5 60 - 274
08:34 10,4 2,7 16,7 øst 9,0 1035,5 59 - 279
08:39 10,3 2,6 16,7 øsø 11,1 1035,5 59 - 285
08:44 10,4 2,7 16,7 øst 11,9 1035,5 59 - 287
08:49 10,6 2,9 17,7 øst 15,6 1035,6 59 - 290
08:54 10,6 2,9 17,7 øst 10,3 1035,5 59 - 290
08:59 10,8 3,1 18,5 øst 13,4 1035,6 59 - 294
09:04 10,8 2,8 9,7 ønø 7,2 1035,6 58 - 299
09:09 10,9 3,2 9,3 øst 6,0 1035,7 59 - 304
09:14 11,2 3,4 14,8 ønø 11,3 1035,7 59 - 315
09:19 11,3 3,3 14,8 øst 7,9 1035,7 58 - 327
09:24 11,4 3,2 14,8 øst 9,8 1035,8 57 - 345
09:29 11,7 3,7 18,5 ønø 12,1 1035,7 58 - 364
09:34 11,8 3,0 13,0 øst 8,7 1035,7 55 - 385
09:39 12,0 3,7 14,8 øst 6,4 1035,7 57 - 408
09:44 12,2 3,4 11,1 øst 7,4 1035,7 55 - 431
09:49 12,4 3,4 13,0 øst 8,8 1035,8 54 - 457
09:54 12,7 3,3 14,5 øsø 10,0 1035,9 53 - 473
09:59 12,9 3,1 16,7 øst 12,4 1035,9 51 - 485
10:04 13,2 3,3 11,1 øst 7,9 1036,0 51 - 499
10:09 13,4 2,9 14,8 øsø 8,7 1035,9 49 - 510
10:14 13,5 2,7 16,7 øst 11,7 1035,9 48 - 520
10:19 13,6 2,7 14,8 øsø 10,8 1036,0 48 - 529
10:24 13,6 2,5 14,5 ønø 10,0 1035,9 47 - 538
10:29 13,7 2,3 16,7 øsø 10,5 1036,0 46 - 548
10:34 13,8 2,7 6,4 2,6 1036,0 47 - 555
10:39 13,9 2,4 14,8 øst 9,7 1036,0 46 - 564
10:44 14,0 2,2 16,1 øst 9,5 1036,0 45 - 575
10:49 14,1 2,0 14,8 øst 11,3 1036,0 44 - 584
10:54 14,2 2,8 11,3 øst 9,2 1036,0 46 - 594
10:59 14,2 1,8 16,7 ønø 7,4 1035,9 43 - 599
11:04 14,3 2,2 16,7 øsø 10,3 1035,9 44 - 606
11:09 14,4 1,9 14,8 øst 8,8 1036,0 43 - 617
11:14 14,6 2,5 14,8 8,7 1035,9 44 - 622
11:19 14,8 2,1 16,7 ønø 11,7 1035,9 42 - 631
11:24 14,9 2,4 14,8 ønø 11,4 1035,9 43 - 636
11:29 14,9 2,4 14,5 øst 8,8 1035,9 43 - 642
11:34 15,1 2,2 18,5 øst 11,4 1035,8 42 - 650
11:39 15,3 2,4 14,8 øst 9,8 1035,8 42 - 652
11:44 15,3 2,5 18,5 øst 13,5 1035,8 42 - 661
11:49 15,4 3,2 18,5 ønø 14,0 1035,7 44 - 668
11:54 15,5 2,3 14,8 øsø 9,7 1035,8 41 - 671
11:59 15,5 2,6 18,5 øsø 10,8 1035,8 42 - 679
12:04 15,6 3,4 11,1 7,4 1035,7 44 - 684
12:09 15,6 3,4 16,7 øst 10,6 1035,7 44 - 686
12:14 15,9 3,0 18,5 15,3 1035,7 42 - 693
12:19 16,0 3,1 16,7 nnø 10,0 1035,7 42 - 696
12:24 16,0 3,1 11,1 nnø 7,9 1035,6 42 - 700
12:29 16,1 3,1 9,3 øst 7,4 1035,6 42 - 701
12:34 16,2 3,6 16,1 7,7 1035,5 43 - 689
12:39 16,3 2,7 16,1 10,3 1035,5 40 - 661
12:44 16,3 3,3 14,8 11,4 1035,5 42 - 621
12:49 16,3 3,3 16,7 øst 6,6 1035,5 42 - 585
12:54 16,5 3,9 14,8 nnø 8,8 1035,4 43 - 570
12:59 16,6 2,9 7,4 øst 7,4 1035,4 40 - 571
13:04 16,7 3,7 14,8 4,2 1035,4 42 - 601
13:09 16,8 3,2 11,1 ønø 8,4 1035,4 40 - 645
13:14 16,9 3,2 16,7 10,1 1035,4 40 - 677
13:19 16,8 3,5 11,3 6,8 1035,4 41 - 708
13:24 16,8 3,2 9,7 7,6 1035,4 40 - 715
13:29 16,9 2,9 14,8 8,8 1035,3 39 - 717
13:34 17,1 3,1 18,5 ønø 9,7 1035,3 39 - 717
13:39 17,1 3,1 16,7 ønø 10,6 1035,3 39 - 717
13:44 17,2 3,4 16,7 11,7 1035,3 40 - 715
13:49 17,2 3,1 16,1 9,8 1035,2 39 - 710
13:54 17,2 2,3 11,1 ønø 7,9 1035,2 37 - 710
13:59 17,3 2,5 13,0 10,1 1035,1 37 - 707
14:04 17,4 2,2 11,1 9,0 1035,1 36 - 705
14:09 17,4 2,6 18,5 ønø 10,3 1035,1 37 - 701
14:14 17,6 2,3 14,8 ønø 7,4 1035,1 36 - 696
14:19 17,6 1,9 16,7 nnø 12,7 1035,1 35 - 694
14:24 17,5 1,8 6,4 ønø 4,5 1035,0 35 - 691
14:29 17,5 3,0 16,7 11,3 1035,0 38 - 687
14:34 17,7 2,4 16,7 nnø 10,5 1034,8 36 - 680
14:39 17,7 3,2 11,1 nnø 3,5 1034,8 38 - 675
14:44 17,7 5,0 9,3 nord 6,0 1034,8 43 - 666
14:49 17,7 4,6 11,1 vnv 10,9 1034,7 42 - 663
14:54 17,5 4,8 18,5 nnv 12,2 1034,7 43 - 656
14:59 17,3 4,3 11,1 nord 9,7 1034,6 42 - 650
15:04 17,4 5,3 11,3 nv 6,6 1034,6 45 - 643
15:09 17,4 4,4 9,7 nord 6,1 1034,6 42 - 636
15:14 17,4 4,0 13,0 nord 6,6 1034,5 41 - 631
15:15 17,4 4,0 8,0 nnv 9,7 1034,6 41 - 458.8
15:24 17,4 5,0 16,1 nord 6,0 1034,5 44 - 619
15:25 17,4 4,3 4,8 nnv 16,1 1034,5 42 - 438.7
15:30 17,4 4,3 4,8 nnv 11,3 1034,5 42 - 427.6
15:43 17,4 4,4 8,0 nv 6,8 1034,3 42 - 585
15:45 17,4 4,3 8,0 nnv 11,3 1034,4 42 - 397.1
15:59 17,5 4,4 8,0 nnv 12,9 1034,3 42 - 367.2
16:00 17,6 4,5 8,0 nnv 12,9 1034,3 42 - 365
16:19 17,3 4,6 8,0 nnv 16,1 1034,1 43 - 327.6
16:23 17,1 5,1 16,7 nv 8,4 1034,0 45 - 515
16:29 17,1 5,0 17,7 nv 7,7 1034,1 45 - 510
16:33 16,9 5,2 14,5 nv 8,5 1034,1 46 - 494
16:35 16,9 4,9 8,0 nnv 14,5 1034,1 45 - 294
16:43 16,9 4,9 9,7 nnv 12,9 1034,0 45 - 277.2
16:45 16,9 4,9 9,7 nv 12,9 1034,0 45 - 273.1
16:58 16,9 5,2 9,7 nnv 16,1 1034,0 46 - 247.2
17:00 16,8 5,1 9,7 nv 11,3 1033,9 46 - 243
17:18 16,2 5,2 14,5 nv 8,7 1033,8 48 - 399
17:20 16,3 4,9 9,7 nv 11,3 1033,8 47 - 202.7
17:28 16,1 4,8 14,5 nnv 6,8 1033,7 47 - 374
17:30 16,1 4,8 8,0 nnv 9,7 1033,7 47 - 182.9
17:43 15,9 3,9 9,3 nnv 6,8 1033,6 45 - 338
17:45 15,8 4,6 9,7 nv 6,4 1033,5 47 - 154.9
17:58 15,9 4,7 4,8 nnv 9,7 1033,7 47 - 130.5
18:00 15,9 4,6 4,8 nnv 9,7 1033,6 47 - 127.3
18:14 15,7 4,4 9,7 nnv 6,3 1033,5 47 - 283
18:15 15,7 4,4 4,8 nv 9,7 1033,5 47 - 100.5
18:28 15,7 4,4 4,8 nv 9,7 1033,5 47 - 78.6
18:30 15,7 4,3 4,8 nv 9,7 1033,5 47 - 75.4
18:43 15,1 3,8 9,3 nv 5,0 1033,4 47 - 97
18:45 15,3 4,0 4,8 nv 8,0 1033,4 47 - 51.9
18:59 14,9 3,4 4,8 nv 8,0 1033,4 46 - 30.8
19:00 14,8 3,0 3,2 nnv 4,8 1033,3 45 - 29.9
19:15 14,3 3,1 6,4 nnv 4,2 1033,3 47 - 9.4
19:28 13,9 3,4 5,6 nord 3,7 1033,2 49 - 26
19:30 14,1 3,2 3,2 nnv 4,8 1033,2 48 - -
19:43 13,9 3,4 3,2 nord 6,4 1033,2 49 - -
19:45 13,9 3,3 3,2 nord 4,8 1033,2 49 - -
19:59 13,4 3,5 3,2 nord 4,8 1033,3 51 - -
20:00 13,3 3,3 3,2 nord 4,8 1033,3 51 - -
20:18 12,2 3,4   stille   1033,5 55 - 7
20:20 12,2 3,4   stille   1033,4 55 - -
20:25 11,9 3,4   stille   1033,4 56 - -
20:33 11,4 3,2   stille   1033,5 57 - -
20:35 11,4 3,4 1,6 nnø   1033,5 58 - -
20:43 10,9 3,5 5,6 øst 0,8 1033,6 60 - -
20:45 10,9 3,4 5,6 øst 1,4 1033,6 60 - -
dagens sammenfatning af fredag 19 april 2019
tid Temp. ( °C ) Dew pt. ( °C ) vind ( km/h ) fra vindstød ( km/h ) lufttryk ( hPa ) Humid.( % ) Rainrate ( cm ) solenergi ( W/m2 )
høj17,7 5,3 18,5 øst ( 589/1867 ) 16,1 1036,0 88 - 717
gennemsnit10,6 2,7 8,4 øst #58/221 6,3 1035,0 61 - 403 #148/221
lav2,4 0,2 -   0,0 1033,2 35 -  
dagens Tabular details for fredag 19 april 2019
tid Temp. ( °C ) Dew pt. ( °C ) vind ( km/h ) fra vindstød ( km/h ) lufttryk ( hPa ) Humid.( % ) Rainrate ( cm ) solenergi ( W/m2 )
00:00 6,4 2,9 4,8 øst 8,0 1034,7 78 - -
00:23 5,8 2,8 8,0 ønø 4,5 1034,9 81 - -
00:25 6,1 2,8 4,8 øst 8,0 1034,8 80 - -
00:33 5,6 2,8 6,4 øst 4,3 1034,9 82 - -
00:38 5,6 2,8 4,8 øst 8,0 1034,9 82 - -
00:43 5,5 2,5 7,4 øst 5,8 1034,9 81 - -
00:45 5,5 2,5 7,4 øst 5,8 1034,9 81 - -
01:00 5,5 2,5 4,8 øst 8,0 1034,9 81 - -
01:15 5,5 2,5 4,8 øst 8,0 1034,9 81 - -
01:24 5,0 2,3 5,6 2,7 1035,0 83 - -
01:29 4,9 2,3 1,6 0,2 1035,1 83 - -
01:30 4,9 2,3 1,9 0,8 1035,1 83 - -
01:39 4,8 2,3 1,9   1035,1 84 - -
01:44 4,9 2,8 4,8 nnø 2,1 1035,1 86 - -
01:45 4,9 2,8 1,6 nnø 4,8 1035,1 86 - -
01:54 5,0 2,5 4,8 nnø 3,1 1035,0 84 - -
01:59 4,9 2,4 6,4 4,2 1035,0 84 - -
02:00 4,9 2,4 3,2 6,4 1035,0 84 - -
02:14 4,7 2,4 1,6 3,2 1035,0 85 - -
02:15 4,7 2,2   stille   1035,0 84 - -
02:24 4,7 2,3 1,6   1035,0 85 - -
02:29 4,3 1,9 5,6 ønø 2,7 1035,0 84 - -
02:30 4,3 1,9 1,6 4,8 1034,9 84 - -
02:44 4,1 1,8 5,6 ønø 3,1 1034,9 85 - -
02:45 4,2 1,9 3,2 ønø 4,8 1034,9 85 - -
02:54 3,9 1,7 1,9 ønø   1034,9 85 - -
02:59 3,9 1,6   stille   1034,8 85 - -
03:00 3,9 1,6   stille   1034,8 85 - -
03:09 3,7 1,4   stille   1034,9 85 - -
03:14 3,7 1,2   stille   1034,9 84 - -
03:19 3,6 1,1   stille   1035,0 84 - -
03:24 3,4 0,9   stille   1035,0 84 - -
03:29 3,3 1,1   stille   1034,9 85 - -
03:34 3,3 1,1 1,6 ønø 0,2 1034,9 85 - -
03:39 3,3 1,1 1,9 ønø   1034,9 85 - -
03:44 3,4 1,1 1,9 ønø 0,2 1034,9 85 - -
03:49 3,4 1,1 1,9 ønø 0,2 1034,9 85 - -
03:54 3,4 0,9 1,9 ønø 0,2 1034,9 84 - -
03:59 3,4 0,9 3,7 ønø 1,1 1034,9 84 - -
04:04 3,4 0,9 3,2 ønø 0,6 1035,0 84 - -
04:09 3,4 0,9 1,9 ønø   1035,0 84 - -
04:14 3,3 0,9   stille   1035,0 84 - -
04:19 3,2 0,8   stille   1035,0 84 - -
04:24 3,2 0,7 1,9 ønø 0,3 1035,0 84 - -
04:29 3,1 0,8   stille   1035,0 85 - -
04:34 3,1 0,8   stille   1035,0 85 - -
04:39 3,1 0,8 3,2 ønø 0,6 1034,9 85 - -
04:44 3,0 0,6 5,6 ønø 3,5 1034,9 84 - -
04:49 2,9 0,5 3,7 ønø 1,3 1034,9 84 - -
04:54 2,9 0,6   stille   1034,9 85 - -
04:59 2,9 0,6 3,7 ønø 2,6 1034,9 85 - -
05:04 2,8 0,6 3,7 ønø 0,2 1034,9 85 - -
05:09 2,7 0,3 3,7 ønø 2,3 1034,9 84 - -
05:14 2,6 0,3 4,8 ønø 2,7 1034,9 85 - -
05:19 2,5 0,2 5,6 ønø 4,5 1034,9 85 - -
05:24 2,4 0,3 5,6 ønø 4,5 1034,9 86 - -
05:29 2,4 0,3 5,6 ønø 4,8 1035,0 86 - -
05:34 2,4 0,3 5,6 ønø 4,0 1035,0 86 - -
05:39 2,5 0,6 5,6 ønø 3,9 1035,0 87 - -
05:44 2,7 0,7 5,6 ønø 4,0 1035,0 87 - -
05:49 2,8 0,7 5,6 ønø 3,9 1035,0 86 - -
05:54 2,8 0,7 5,6 ønø 3,2 1035,0 86 - -
05:59 2,8 0,6   stille   1035,0 85 - 5
06:04 2,8 0,6   stille   1035,0 85 - 7
06:09 2,8 0,6 5,6 ønø 3,2 1035,1 85 - 9
06:14 2,8 0,6 5,6 øst 3,7 1035,1 85 - 11
06:19 2,8 0,6 5,6 øst 4,3 1035,1 85 - 12
06:24 2,8 0,5 6,4 øst 5,8 1035,1 85 - 14
06:29 2,8 0,5 5,6 øst 3,9 1035,1 85 - 16
06:34 2,7 0,4 3,7 øst 2,9 1035,1 85 - 18
06:39 2,7 0,6 3,7 øst 2,9 1035,1 86 - 19
06:44 2,7 0,8 3,7 øst 2,9 1035,2 87 - 21
06:49 2,7 0,6 5,6 øst 3,5 1035,2 86 - 39
06:54 2,7 0,8 5,6 øst 3,4 1035,2 87 - 40
06:59 2,8 0,8 5,6 øst 4,3 1035,3 87 - 49
07:04 3,1 1,3 5,6 øst 3,5 1035,3 88 - 86
07:09 3,5 1,7 3,7 øst 2,3 1035,4 88 - 95
07:14 4,2 2,1   stille   1035,4 86 - 100
07:19 4,8 2,3   stille   1035,4 84 - 107
07:24 5,5 2,7 5,6 øst 3,4 1035,4 82 - 109
07:29 6,1 2,5 5,6 øst 3,4 1035,5 78 - 109
07:34 6,7 2,7 5,6 øst 3,7 1035,5 76 - 113
07:39 7,3 2,8 1,9 ønø 0,3 1035,5 73 - 125
07:44 7,8 3,3 3,7 ønø 2,3 1035,5 73 - 144
07:49 8,3 3,1 3,7 ønø 2,1 1035,5 70 - 174
07:54 8,7 3,1 5,6 øst 2,9 1035,5 68 - 199
07:59 8,9 2,9 5,6 øst 3,9 1035,5 66 - 211
08:04 9,2 3,4 5,6 ønø 3,4 1035,5 67 - 220
08:09 9,5 3,2 8,0 ønø 6,4 1035,5 65 - 213
08:14 9,8 3,3 9,3 øst 6,6 1035,5 64 - 204
08:19 10,1 3,1 12,9 øst 7,1 1035,6 62 - 220
08:24 10,2 3,0 11,3 øst 7,4 1035,5 61 - 251
08:29 10,4 2,9 16,7 øsø 9,7 1035,5 60 - 274
08:34 10,4 2,7 16,7 øst 9,0 1035,5 59 - 279
08:39 10,3 2,6 16,7 øsø 11,1 1035,5 59 - 285
08:44 10,4 2,7 16,7 øst 11,9 1035,5 59 - 287
08:49 10,6 2,9 17,7 øst 15,6 1035,6 59 - 290
08:54 10,6 2,9 17,7 øst 10,3 1035,5 59 - 290
08:59 10,8 3,1 18,5 øst 13,4 1035,6 59 - 294
09:04 10,8 2,8 9,7 ønø 7,2 1035,6 58 - 299
09:09 10,9 3,2 9,3 øst 6,0 1035,7 59 - 304
09:14 11,2 3,4 14,8 ønø 11,3 1035,7 59 - 315
09:19 11,3 3,3 14,8 øst 7,9 1035,7 58 - 327
09:24 11,4 3,2 14,8 øst 9,8 1035,8 57 - 345
09:29 11,7 3,7 18,5 ønø 12,1 1035,7 58 - 364
09:34 11,8 3,0 13,0 øst 8,7 1035,7 55 - 385
09:39 12,0 3,7 14,8 øst 6,4 1035,7 57 - 408
09:44 12,2 3,4 11,1 øst 7,4 1035,7 55 - 431
09:49 12,4 3,4 13,0 øst 8,8 1035,8 54 - 457
09:54 12,7 3,3 14,5 øsø 10,0 1035,9 53 - 473
09:59 12,9 3,1 16,7 øst 12,4 1035,9 51 - 485
10:04 13,2 3,3 11,1 øst 7,9 1036,0 51 - 499
10:09 13,4 2,9 14,8 øsø 8,7 1035,9 49 - 510
10:14 13,5 2,7 16,7 øst 11,7 1035,9 48 - 520
10:19 13,6 2,7 14,8 øsø 10,8 1036,0 48 - 529
10:24 13,6 2,5 14,5 ønø 10,0 1035,9 47 - 538
10:29 13,7 2,3 16,7 øsø 10,5 1036,0 46 - 548
10:34 13,8 2,7 6,4 2,6 1036,0 47 - 555
10:39 13,9 2,4 14,8 øst 9,7 1036,0 46 - 564
10:44 14,0 2,2 16,1 øst 9,5 1036,0 45 - 575
10:49 14,1 2,0 14,8 øst 11,3 1036,0 44 - 584
10:54 14,2 2,8 11,3 øst 9,2 1036,0 46 - 594
10:59 14,2 1,8 16,7 ønø 7,4 1035,9 43 - 599
11:04 14,3 2,2 16,7 øsø 10,3 1035,9 44 - 606
11:09 14,4 1,9 14,8 øst 8,8 1036,0 43 - 617
11:14 14,6 2,5 14,8 8,7 1035,9 44 - 622
11:19 14,8 2,1 16,7 ønø 11,7 1035,9 42 - 631
11:24 14,9 2,4 14,8 ønø 11,4 1035,9 43 - 636
11:29 14,9 2,4 14,5 øst 8,8 1035,9 43 - 642
11:34 15,1 2,2 18,5 øst 11,4 1035,8 42 - 650
11:39 15,3 2,4 14,8 øst 9,8 1035,8 42 - 652
11:44 15,3 2,5 18,5 øst 13,5 1035,8 42 - 661
11:49 15,4 3,2 18,5 ønø 14,0 1035,7 44 - 668
11:54 15,5 2,3 14,8 øsø 9,7 1035,8 41 - 671
11:59 15,5 2,6 18,5 øsø 10,8 1035,8 42 - 679
12:04 15,6 3,4 11,1 7,4 1035,7 44 - 684
12:09 15,6 3,4 16,7 øst 10,6 1035,7 44 - 686
12:14 15,9 3,0 18,5 15,3 1035,7 42 - 693
12:19 16,0 3,1 16,7 nnø 10,0 1035,7 42 - 696
12:24 16,0 3,1 11,1 nnø 7,9 1035,6 42 - 700
12:29 16,1 3,1 9,3 øst 7,4 1035,6 42 - 701
12:34 16,2 3,6 16,1 7,7 1035,5 43 - 689
12:39 16,3 2,7 16,1 10,3 1035,5 40 - 661
12:44 16,3 3,3 14,8 11,4 1035,5 42 - 621
12:49 16,3 3,3 16,7 øst 6,6 1035,5 42 - 585
12:54 16,5 3,9 14,8 nnø 8,8 1035,4 43 - 570
12:59 16,6 2,9 7,4 øst 7,4 1035,4 40 - 571
13:04 16,7 3,7 14,8 4,2 1035,4 42 - 601
13:09 16,8 3,2 11,1 ønø 8,4 1035,4 40 - 645
13:14 16,9 3,2 16,7 10,1 1035,4 40 - 677
13:19 16,8 3,5 11,3 6,8 1035,4 41 - 708
13:24 16,8 3,2 9,7 7,6 1035,4 40 - 715
13:29 16,9 2,9 14,8 8,8 1035,3 39 - 717
13:34 17,1 3,1 18,5 ønø 9,7 1035,3 39 - 717
13:39 17,1 3,1 16,7 ønø 10,6 1035,3 39 - 717
13:44 17,2 3,4 16,7 11,7 1035,3 40 - 715
13:49 17,2 3,1 16,1 9,8 1035,2 39 - 710
13:54 17,2 2,3 11,1 ønø 7,9 1035,2 37 - 710
13:59 17,3 2,5 13,0 10,1 1035,1 37 - 707
14:04 17,4 2,2 11,1 9,0 1035,1 36 - 705
14:09 17,4 2,6 18,5 ønø 10,3 1035,1 37 - 701
14:14 17,6 2,3 14,8 ønø 7,4 1035,1 36 - 696
14:19 17,6 1,9 16,7 nnø 12,7 1035,1 35 - 694
14:24 17,5 1,8 6,4 ønø 4,5 1035,0 35 - 691
14:29 17,5 3,0 16,7 11,3 1035,0 38 - 687
14:34 17,7 2,4 16,7 nnø 10,5 1034,8 36 - 680
14:39 17,7 3,2 11,1 nnø 3,5 1034,8 38 - 675
14:44 17,7 5,0 9,3 nord 6,0 1034,8 43 - 666
14:49 17,7 4,6 11,1 vnv 10,9 1034,7 42 - 663
14:54 17,5 4,8 18,5 nnv 12,2 1034,7 43 - 656
14:59 17,3 4,3 11,1 nord 9,7 1034,6 42 - 650
15:04 17,4 5,3 11,3 nv 6,6 1034,6 45 - 643
15:09 17,4 4,4 9,7 nord 6,1 1034,6 42 - 636
15:14 17,4 4,0 13,0 nord 6,6 1034,5 41 - 631
15:15 17,4 4,0 8,0 nnv 9,7 1034,6 41 - 458.8
15:24 17,4 5,0 16,1 nord 6,0 1034,5 44 - 619
15:25 17,4 4,3 4,8 nnv 16,1 1034,5 42 - 438.7
15:30 17,4 4,3 4,8 nnv 11,3 1034,5 42 - 427.6
15:43 17,4 4,4 8,0 nv 6,8 1034,3 42 - 585
15:45 17,4 4,3 8,0 nnv 11,3 1034,4 42 - 397.1
15:59 17,5 4,4 8,0 nnv 12,9 1034,3 42 - 367.2
16:00 17,6 4,5 8,0 nnv 12,9 1034,3 42 - 365
16:19 17,3 4,6 8,0 nnv 16,1 1034,1 43 - 327.6
16:23 17,1 5,1 16,7 nv 8,4 1034,0 45 - 515
16:29 17,1 5,0 17,7 nv 7,7 1034,1 45 - 510
16:33 16,9 5,2 14,5 nv 8,5 1034,1 46 - 494
16:35 16,9 4,9 8,0 nnv 14,5 1034,1 45 - 294
16:43 16,9 4,9 9,7 nnv 12,9 1034,0 45 - 277.2
16:45 16,9 4,9 9,7 nv 12,9 1034,0 45 - 273.1
16:58 16,9 5,2 9,7 nnv 16,1 1034,0 46 - 247.2
17:00 16,8 5,1 9,7 nv 11,3 1033,9 46 - 243
17:18 16,2 5,2 14,5 nv 8,7 1033,8 48 - 399
17:20 16,3 4,9 9,7 nv 11,3 1033,8 47 - 202.7
17:28 16,1 4,8 14,5 nnv 6,8 1033,7 47 - 374
17:30 16,1 4,8 8,0 nnv 9,7 1033,7 47 - 182.9
17:43 15,9 3,9 9,3 nnv 6,8 1033,6 45 - 338
17:45 15,8 4,6 9,7 nv 6,4 1033,5 47 - 154.9
17:58 15,9 4,7 4,8 nnv 9,7 1033,7 47 - 130.5
18:00 15,9 4,6 4,8 nnv 9,7 1033,6 47 - 127.3
18:14 15,7 4,4 9,7 nnv 6,3 1033,5 47 - 283
18:15 15,7 4,4 4,8 nv 9,7 1033,5 47 - 100.5
18:28 15,7 4,4 4,8 nv 9,7 1033,5 47 - 78.6
18:30 15,7 4,3 4,8 nv 9,7 1033,5 47 - 75.4
18:43 15,1 3,8 9,3 nv 5,0 1033,4 47 - 97
18:45 15,3 4,0 4,8 nv 8,0 1033,4 47 - 51.9
18:59 14,9 3,4 4,8 nv 8,0 1033,4 46 - 30.8
19:00 14,8 3,0 3,2 nnv 4,8 1033,3 45 - 29.9
19:15 14,3 3,1 6,4 nnv 4,2 1033,3 47 - 9.4
19:28 13,9 3,4 5,6 nord 3,7 1033,2 49 - 26
19:30 14,1 3,2 3,2 nnv 4,8 1033,2 48 - -
19:43 13,9 3,4 3,2 nord 6,4 1033,2 49 - -
19:45 13,9 3,3 3,2 nord 4,8 1033,2 49 - -
19:59 13,4 3,5 3,2 nord 4,8 1033,3 51 - -
20:00 13,3 3,3 3,2 nord 4,8 1033,3 51 - -
20:18 12,2 3,4   stille   1033,5 55 - 7
20:20 12,2 3,4   stille   1033,4 55 - -
20:25 11,9 3,4   stille   1033,4 56 - -
20:33 11,4 3,2   stille   1033,5 57 - -
20:35 11,4 3,4 1,6 nnø   1033,5 58 - -
20:43 10,9 3,5 5,6 øst 0,8 1033,6 60 - -
20:45 10,9 3,4 5,6 øst 1,4 1033,6 60 - -

Download your copy of this data-set  here

Our weather-data as stored at Weather Underground. script udviklet af Jim McMurry. tilpasset til dette template Leuven-Template.eu

du finder også vores vejrinformationer på:

European Weather Network

Weather Underground

AWEKAS

WeatherlinkIP

Citizen Weather Observer Program (CWOP)

udstyr som vi anvender:

vejrstation
Davis VP2+

vejrprogram
Weather Display

vejrserver
Dell E6400

hjemmeside host
Webhosting.dk

Davis VP2+

Weather Display

Dell E6400

Webhosting.dk